SL-16 DEB, 22430

Orbit data source: Space-Track

SL-16 DEB, 22430 is space debris in LEO originally from a launch on Fri, 25 Dec 1992 UTC launched from the Tyuratam Missile And Space Complex (TTMTR). Debris objects in space refer to the collection of defunct objects orbiting the Earth. Examples of debris include non-operational satellites, rocket bodies, and fragments generated from explosions, collisions, or faulty payload assembly.

Loading next visibility...
Identifier
22430, 1992-093DX
Orbit
LEO
Country
Flag of CISCIS
Related business
Manufacturer
Unknown
Mission
Spacecraft
Bus & Motor
Unknown
Mass
Unknown
Launch date (UTC)
1992-12-25 (33 years ago)
Launch vehicle
Unknown
Launch site
Tyuratam Missile And Space Complex (TTMTR)
Object type
Payload
Rocket body
Debris
Shape & HBR
Unknown shape, 0.1 m
Radar Cross Section
Small (<0.1 m²)

Expand to show TLE details & history
Last TLE update: 14 hours ago

TLE from 14 hours ago
0 SL-16 DEB
1 22430U 92093DX  26037.20805858  .00000368  00000-0  28400-3 0  9992
2 22430  71.2368 128.8312 0116870 241.0395 141.4957 13.96045824682191
Epoch: 2026-02-06T04:59Z
TLE epoch observation values (Epoch: 2026-02-06T04:59:36.261Z)
Latitude
22.0732°
Longitude
-74.54236°
Altitude
976.719 km
Speed
7.331 km/s
True Right ascension
09h 06m 49s
True Declination
21° 57' 26"
Sunlit
Object was in full shadow at epoch
Visualization orbit readout
Latitude
Unknown
Longitude
Unknown
Altitude
Unknown
Speed
Unknown
Apparent Right ascension
Unknown
Apparent Declination
Unknown
Sunlit
N/A
Visualization observer readout
Local Sidereal Time
20:39:56
Azimuth
Unknown
Elevation
Unknown
Doppler factor
Unknown
Orbital elements
Apogee altitude
990.563 km
Perigee altitude
820.317 km
Semi-major axis
7,283.577 km
Eccentricity
0.01169
Inclination
71.2368°
RAAN
128.8312°
Arg. of periapsis
241.0395°
True anomaly
142.32001°
Mean anomaly
141.4957°
Eccentric anomaly
141.9088°
Mean motion
3.49161 °/min
Orbital period
103.1 mins
BSTAR
0.000284
Loading maneuver chart data...
Computing Atmospheric mass density...

Documentation

Showing up to 5 results
|